Theta_e
280 280 280 280 280 280 280 280 281 281 281 282 281 281 280 281 278 277 276 278 278 279 279 279 279 278 278 278 279 278 278 278 279 279 278 278 278 279 283 285 286 286 287 287 287 288 288 289 289 289 290 290 290 291 291 291 292 292 293 293 294 294 293 293 293 294 293 295 296 294 293 294 295 296
280 279 279 279 279 279 279 279 280 280 280 280 280 280 280 280 279 278 277 277 279 278 279 279 279 279 278 278 278 278 277 278 278 278 278 278 278 280 282 283 284 285 286 286 286 288 288 288 288 289 289 289 290 290 290 291 291 292 293 294 294 294 294 294 294 292 293 293 294 294 295 295 294 294
278 278 278 278 278 278 278 278 279 279 279 280 279 279 280 279 280 278 278 275 278 279 278 279 278 276 277 277 277 277 278 278 278 278 278 278 279 279 279 280 282 283 284 284 286 287 287 288 288 288 287 288 289 290 290 290 290 291 291 292 292 292 293 292 291 292 292 292 293 293 293 294 294 294
278 278 277 277 277 277 278 278 278 278 278 278 278 278 279 278 278 278 277 276 276 279 277 278 278 277 276 277 276 277 277 277 277 278 278 278 278 278 278 279 280 281 282 284 285 286 287 287 287 287 286 286 288 288 289 289 289 289 289 290 291 291 290 290 290 290 290 289 290 291 291 293 292 291
277 277 277 276 276 277 277 277 277 277 277 277 277 277 277 277 277 277 276 275 275 276 278 277 276 277 277 276 277 276 276 277 277 278 278 278 278 278 278 278 279 280 281 283 284 285 285 286 286 285 285 285 287 287 288 288 288 288 288 288 289 289 289 289 289 289 289 289 290 290 290 290 292 294
276 276 276 276 276 276 276 276 276 277 276 276 276 276 276 276 275 276 275 275 274 274 276 276 277 276 276 274 277 275 275 276 277 277 277 278 278 278 278 278 278 279 280 282 283 284 284 285 285 284 284 285 287 287 287 286 286 287 287 287 286 287 287 288 288 288 288 289 290 291 292 292 290 290
276 275 276 276 275 275 275 275 276 276 276 276 276 275 276 275 275 275 275 274 273 273 273 275 274 275 275 275 275 276 276 276 277 276 277 277 277 278 278 278 278 279 280 282 282 282 283 283 283 283 284 284 285 285 285 285 285 285 285 285 285 285 285 286 287 287 288 289 290 290 288 289 292 291
275 275 275 275 275 275 275 275 275 275 275 275 275 275 275 275 274 275 275 275 274 273 272 274 274 274 274 274 275 276 276 276 276 277 277 277 277 277 277 277 277 278 280 280 280 280 281 281 281 282 283 283 284 284 284 284 284 284 283 283 283 284 284 285 286 286 286 287 289 289 289 291 288 290
275 276 276 276 275 275 275 274 274 275 274 275 274 274 274 274 274 274 274 274 274 273 272 273 274 274 274 275 275 276 275 276 277 277 276 276 276 276 277 277 277 278 278 278 278 278 279 279 280 281 282 282 283 283 282 282 282 282 282 281 282 283 284 285 285 285 286 286 286 287 289 288 289 290
276 276 276 275 275 275 275 275 274 274 274 274 274 274 274 274 274 274 274 274 273 273 273 273 272 274 273 273 275 276 276 275 275 275 276 276 276 275 275 276 276 276 275 275 275 276 277 277 278 279 280 281 281 281 281 281 281 280 280 280 282 283 284 284 285 285 285 285 286 287 286 288 288 286
276 276 276 275 275 275 275 275 274 274 274 273 273 274 273 274 273 273 273 273 273 273 272 272 273 272 273 274 273 276 277 276 275 274 274 274 275 275 275 274 275 276 275 276 276 276 276 277 275 276 278 279 279 279 279 279 279 278 279 281 282 283 284 284 284 284 285 285 285 285 285 286 286 287
275 275 275 275 275 275 275 275 275 275 274 274 273 274 273 273 273 273 273 272 272 272 272 272 272 272 272 273 275 276 276 274 274 275 273 271 272 274 275 274 273 274 274 274 274 274 274 274 274 275 276 276 277 277 277 277 277 277 280 281 282 283 283 283 284 284 284 284 284 285 285 285 285 287
275 275 275 275 275 275 275 276 276 275 275 274 273 273 273 273 273 272 272 272 272 271 271 271 272 272 272 273 274 274 274 273 273 274 274 272 273 274 273 274 274 274 273 273 273 272 272 272 272 272 272 273 274 274 275 275 275 278 281 282 282 282 282 283 283 283 283 283 284 284 284 284 285 284
275 274 275 274 275 276 276 277 278 278 278 277 275 274 273 272 272 270 270 270 270 271 270 270 271 271 271 273 274 274 274 275 275 273 273 271 272 273 272 272 273 273 272 271 270 271 272 271 271 271 271 272 273 273 273 273 276 278 280 282 282 282 282 282 283 283 283 283 283 283 283 283 284 284
275 274 275 274 275 276 277 277 278 279 279 279 278 277 276 275 272 269 269 269 270 269 269 271 270 271 271 273 275 275 274 274 274 273 273 272 272 270 268 267 270 274 272 270 269 269 271 271 269 270 271 271 272 273 273 276 278 279 281 281 281 281 282 282 282 282 282 282 282 283 283 283 283 283
275 274 274 274 274 275 276 276 277 278 280 280 280 280 279 278 278 276 272 270 269 269 269 270 271 271 272 274 275 274 274 273 273 273 273 272 271 269 268 268 267 272 273 269 268 268 271 270 270 269 270 271 272 272 274 277 278 280 280 280 281 281 281 281 281 281 281 282 282 282 283 283 283 283
275 274 274 274 273 273 275 275 275 275 276 279 280 281 281 281 280 280 280 278 275 273 271 272 272 273 274 274 275 275 274 275 273 273 272 272 271 271 269 269 269 270 272 269 267 266 269 270 269 268 270 271 271 271 274 276 278 279 279 280 280 281 281 281 281 281 281 281 282 282 282 282 283 283
275 274 273 273 273 273 273 274 274 274 274 275 275 277 278 279 279 281 281 281 281 279 275 274 273 275 276 275 276 276 276 274 272 272 271 272 270 269 269 270 270 271 271 268 267 265 267 269 268 268 269 271 271 271 273 276 277 278 278 279 280 280 280 280 280 280 281 281 281 282 282 282 282 283
275 274 273 273 273 273 272 273 274 273 273 272 272 272 272 273 274 275 275 277 278 279 279 278 276 277 277 277 277 276 276 275 275 274 272 271 270 270 270 269 270 269 270 269 267 263 267 269 267 268 269 270 270 271 273 275 276 276 277 278 279 279 279 279 279 280 280 281 281 281 281 282 282 282
274 274 274 273 273 273 272 274 276 276 273 271 269 269 269 270 271 272 274 276 277 277 276 277 277 277 278 278 277 277 276 276 276 274 273 271 270 267 266 265 266 266 268 269 266 264 265 268 267 267 269 269 269 270 270 273 275 275 276 277 277 278 278 278 279 279 280 280 280 280 281 281 282 282
274 273 273 273 273 273 273 274 277 279 277 271 268 268 268 268 268 269 271 275 277 278 279 279 280 280 280 280 281 281 281 279 277 273 271 269 267 265 264 264 264 265 267 268 268 266 264 267 267 266 268 268 268 268 269 270 273 274 275 275 276 277 277 278 278 279 279 279 280 280 281 281 281 281
274 274 274 274 273 272 272 275 277 279 278 274 271 269 268 268 267 269 271 271 272 276 278 279 280 280 281 281 282 281 279 277 276 272 269 269 267 265 265 263 264 265 266 266 268 265 264 266 267 265 266 267 267 268 269 270 271 272 272 273 274 275 276 277 277 277 278 278 279 279 280 280 280 278
275 274 275 275 274 274 274 276 277 279 278 276 274 272 271 270 269 270 272 271 271 272 273 274 276 277 279 279 276 274 276 276 274 273 271 269 267 265 265 264 263 262 264 267 269 264 265 265 266 265 262 262 265 267 268 268 268 269 269 269 270 273 274 275 275 276 277 277 278 279 279 280 280 278
276 275 274 276 278 279 278 278 279 279 280 277 275 275 272 270 270 273 272 272 272 272 272 273 274 275 277 273 271 271 271 271 271 270 269 268 267 265 264 263 263 262 263 267 269 265 265 266 264 266 263 260 260 264 266 266 267 268 268 268 268 271 272 272 272 274 275 276 277 278 278 279 279 277
277 276 275 274 277 280 281 281 281 280 280 280 277 275 274 273 274 274 272 272 275 273 272 273 273 274 274 273 270 270 269 269 268 268 270 269 268 266 264 263 263 262 264 266 269 266 264 264 262 263 263 262 262 261 264 265 266 267 268 268 267 268 269 269 270 270 273 274 275 277 277 279 279 278
276 276 276 276 276 279 280 281 282 282 282 281 279 277 279 279 279 276 276 274 274 274 274 273 273 272 271 269 267 267 267 266 266 266 266 267 268 268 267 265 263 261 262 266 269 266 264 262 263 262 262 261 261 262 261 262 265 266 267 268 268 268 268 268 268 269 270 271 271 273 275 278 278 279
277 277 276 275 276 278 279 280 281 282 282 281 280 282 282 282 281 280 278 276 275 274 273 273 272 271 269 267 268 266 266 267 266 265 266 266 266 266 267 267 267 265 266 267 267 266 264 262 264 262 261 261 260 260 261 260 262 265 265 266 267 267 268 268 268 268 269 270 271 274 275 276 277 278
278 277 276 274 277 278 279 280 281 281 281 280 281 281 282 282 281 280 278 277 275 273 272 271 271 270 269 267 267 266 267 266 265 265 265 265 266 266 265 266 265 266 266 266 266 266 265 263 263 263 262 261 259 259 258 262 263 263 263 265 266 266 267 267 268 268 269 270 270 271 271 271 273 274
278 279 280 279 279 279 279 280 281 281 280 281 281 281 281 280 279 278 277 275 272 270 270 269 269 269 268 267 267 267 266 265 265 264 264 264 264 263 263 262 262 262 263 263 264 265 264 263 262 263 262 262 260 260 260 260 261 261 263 262 262 265 266 267 268 268 268 269 269 270 270 270 271 273
282 282 282 282 281 281 280 279 278 277 277 279 280 280 280 278 278 277 276 274 272 271 271 269 269 269 267 266 266 265 264 263 263 263 261 261 261 261 260 260 260 261 261 262 263 264 264 264 263 263 262 262 262 260 261 260 260 261 262 262 262 264 266 267 267 268 268 268 268 269 270 271 271 272
278 279 279 279 281 281 281 280 279 279 278 278 277 277 277 277 277 276 275 274 272 271 270 269 269 267 266 264 263 263 262 261 261 262 261 260 260 260 260 259 259 260 262 261 263 263 264 264 264 264 261 261 261 261 261 261 260 260 261 262 262 260 263 265 266 267 267 268 268 269 270 270 271 273
275 275 276 276 275 275 276 277 278 278 277 276 275 275 275 275 274 274 275 273 271 270 270 268 266 263 262 262 262 261 260 260 260 260 260 259 259 259 259 258 259 260 260 261 261 262 262 263 263 263 263 262 260 260 261 261 260 260 260 262 263 264 265 265 265 266 267 268 267 267 268 269 270 271
271 271 271 271 271 272 272 273 274 275 275 275 275 274 274 273 272 271 270 270 270 268 266 266 265 265 262 262 261 260 260 260 259 260 259 259 258 259 259 258 258 258 258 259 260 261 261 262 262 263 263 262 262 261 260 258 260 261 260 261 262 263 264 266 266 266 267 266 266 266 267 269 270 271
271 269 269 269 269 270 270 271 272 273 273 273 272 271 272 270 268 267 268 269 268 266 265 265 264 264 262 261 261 260 260 260 259 259 260 258 259 258 258 257 257 258 258 258 259 259 260 261 261 261 261 261 261 261 260 259 259 260 261 262 262 262 264 265 265 266 266 266 265 265 266 267 269 271
272 270 269 269 269 269 270 270 271 272 272 272 271 271 270 270 268 268 267 267 267 265 264 263 263 262 262 262 262 260 260 259 259 258 258 258 258 257 257 256 257 257 257 258 258 259 260 259 259 259 259 260 259 260 263 262 259 260 261 262 263 263 263 264 265 265 266 266 266 265 265 266 267 270
272 272 271 271 270 270 270 270 271 271 272 272 272 271 269 269 269 267 267 267 266 265 263 263 262 261 261 261 261 260 258 258 258 257 257 257 256 256 256 256 256 257 258 258 258 259 259 259 259 257 256 257 256 256 258 265 265 263 262 261 263 263 263 264 265 265 265 265 266 265 264 264 266 269
275 274 271 271 271 271 271 271 271 271 271 271 271 271 270 270 269 268 268 267 265 264 264 263 262 262 261 260 258 258 258 257 257 257 256 256 255 256 256 256 256 257 257 258 259 259 259 259 258 257 256 255 255 254 256 260 262 265 263 261 261 262 263 263 263 263 264 265 265 265 265 265 266 268
274 274 273 272 272 271 272 271 271 270 270 270 270 270 270 270 266 265 265 264 264 263 264 264 262 261 260 259 258 258 256 256 256 256 255 255 255 255 255 255 256 257 257 258 258 258 259 258 258 257 256 255 254 254 255 258 259 261 264 263 261 262 263 263 262 262 263 264 264 265 266 266 267 269
274 273 273 272 271 271 271 271 270 270 270 270 269 269 268 266 265 263 263 263 263 262 262 262 261 259 259 258 257 257 256 255 255 255 254 254 255 255 255 255 255 257 256 256 258 258 259 258 257 257 257 256 255 256 257 256 257 260 262 266 264 263 263 263 262 262 262 262 264 266 267 269 270 272
272 269 268 268 267 267 267 267 267 268 268 268 268 267 266 265 264 263 262 262 261 261 260 260 259 258 257 256 255 254 254 253 254 254 254 254 254 255 255 256 256 256 256 256 256 257 257 257 257 257 257 258 258 259 259 258 258 260 261 263 266 265 264 263 262 262 262 263 265 265 265 266 266 268
266 266 264 265 265 265 265 265 265 265 265 264 264 266 265 264 263 263 262 262 260 259 258 257 255 255 255 254 253 254 254 254 253 254 253 254 254 255 256 257 256 257 256 255 255 255 256 257 258 260 259 258 258 258 258 257 257 258 259 261 264 266 267 266 264 263 263 264 265 264 264 264 264 265
263 264 264 263 263 263 264 263 263 263 263 263 263 263 262 262 261 262 262 261 257 255 255 254 253 253 253 253 252 254 253 254 253 254 254 254 254 255 255 256 255 255 254 254 255 255 257 257 257 257 256 256 256 256 255 256 256 257 258 259 260 264 265 266 267 267 266 265 264 263 263 264 265 263
262 262 262 262 262 262 262 263 263 262 262 261 261 260 259 259 258 260 258 256 254 254 254 254 252 252 253 252 252 253 253 253 253 253 253 254 254 254 254 254 254 254 254 255 255 255 255 256 256 256 256 256 256 257 255 256 256 256 257 258 258 259 260 264 265 266 267 267 268 267 266 264 263 261
260 260 260 259 260 260 260 260 260 259 259 259 258 257 258 258 257 256 255 254 253 254 253 252 252 251 251 251 251 251 253 253 252 252 252 253 253 254 253 254 254 254 254 254 253 254 255 255 255 255 255 255 256 256 255 255 256 256 256 257 257 257 258 260 261 263 264 265 267 268 269 269 269 269
258 258 258 258 258 258 257 256 256 255 255 255 255 256 255 255 255 253 251 251 251 251 251 251 251 251 251 251 251 252 252 254 254 253 253 253 254 254 254 253 253 253 253 253 252 253 254 254 254 255 254 255 255 255 256 255 255 255 255 255 255 256 258 258 258 258 259 260 264 267 268 269 269 269
Wind_Speed
6 6 6 5 5 3 3 2 2 2 2 2 2 1 1 1 1 0 1 1 1 0 2 1 1 2 2 3 3 4 5 8 10 7 7 8 8 13 18 19 18 18 19 19 19 20 21 22 23 24 25 26 27 28 29 30 30 32 33 33 34 35 33 32 31 31 30 30 31 32 32 31 30 30
5 6 5 4 4 3 3 3 2 2 2 3 2 2 1 0 2 1 1 2 1 1 2 2 1 1 2 3 4 4 5 8 9 7 7 7 8 15 17 18 18 18 18 19 19 20 20 22 23 23 24 25 27 28 28 29 30 31 33 34 34 34 33 33 32 31 31 31 31 30 32 32 31 31
6 6 7 4 4 3 4 3 3 2 3 3 3 2 2 1 1 3 2 1 1 2 3 1 1 1 3 4 5 4 5 6 9 7 7 7 11 15 12 16 17 17 17 18 18 20 21 22 22 23 24 26 27 28 28 29 29 30 31 31 32 32 32 32 32 31 31 31 31 31 30 31 32 31
5 7 6 5 5 4 4 3 3 3 3 3 3 3 3 2 1 2 3 4 5 2 1 3 2 1 3 5 5 6 5 5 8 6 7 8 12 8 7 12 15 16 17 17 18 20 21 21 21 22 24 25 27 28 28 29 29 29 29 30 30 30 31 31 31 31 32 31 30 31 31 31 31 31
5 5 6 5 4 5 5 4 4 4 4 3 3 3 3 3 3 3 3 4 5 3 1 3 2 2 4 4 3 7 7 7 6 6 7 8 7 7 7 8 11 14 16 16 18 20 20 21 21 22 24 25 27 27 27 27 27 28 28 28 29 30 30 31 31 30 30 31 30 30 31 31 31 30
3 5 6 6 5 5 5 5 5 4 4 4 5 4 4 3 3 3 4 3 2 5 1 3 3 2 1 4 4 5 9 9 7 8 7 6 7 6 7 7 7 13 14 16 18 20 20 21 21 23 24 25 26 26 26 26 27 27 27 27 28 28 29 30 31 31 29 30 30 31 31 31 31 30
6 5 5 6 5 3 5 5 4 4 4 4 4 4 4 4 4 4 3 3 3 5 4 2 3 2 2 4 6 7 7 8 8 9 8 7 6 5 6 7 7 11 14 16 17 19 20 20 21 23 24 24 24 25 25 25 26 26 27 27 28 28 28 29 31 31 31 32 32 32 31 31 30 30
6 6 6 6 6 5 5 5 4 4 4 4 4 4 4 4 4 4 4 4 4 3 4 3 2 2 5 4 5 7 7 8 7 7 8 7 6 6 6 7 7 8 14 16 16 17 18 19 20 22 24 23 24 24 24 24 25 26 26 27 27 27 28 29 30 30 30 31 31 31 32 31 30 30
6 7 6 6 7 6 6 5 5 5 6 5 4 5 4 4 3 3 3 4 4 5 6 5 3 3 4 6 6 7 7 7 7 7 7 6 6 6 6 6 5 10 14 13 13 14 16 18 19 22 24 23 23 23 22 23 24 25 26 26 26 27 29 30 30 31 30 30 30 30 31 30 31 29
6 6 6 6 7 7 8 7 6 6 7 5 5 5 5 4 4 4 4 4 5 6 6 5 5 3 4 6 6 5 5 7 9 8 5 5 5 5 6 5 5 6 7 7 7 8 11 15 18 19 22 23 22 22 21 22 23 24 24 25 26 28 29 29 29 29 30 29 30 30 30 30 30 30
5 5 5 6 8 8 8 7 7 7 7 6 7 7 6 5 5 5 5 4 5 6 5 5 6 6 5 5 7 5 4 6 6 8 10 8 2 4 5 7 6 7 8 8 8 10 15 18 13 16 20 21 21 20 20 20 21 23 23 25 27 28 29 29 28 28 28 28 29 29 30 29 29 29
5 5 6 6 7 7 7 7 6 7 7 6 6 6 5 6 6 6 4 5 5 5 5 6 5 5 6 5 6 6 4 5 4 3 5 10 11 9 6 6 9 9 7 7 6 7 10 11 12 14 16 17 18 19 18 18 19 20 24 26 28 28 28 28 28 29 29 29 28 29 29 29 29 29
5 5 5 6 6 7 7 9 8 8 7 6 5 6 6 6 6 4 4 5 5 4 4 6 5 6 6 6 5 5 4 4 6 6 6 9 8 9 10 7 6 6 8 9 7 6 7 10 8 9 9 9 14 14 16 14 17 21 25 26 27 28 28 28 28 29 29 29 28 28 28 28 29 29
5 6 5 5 8 9 10 11 12 13 13 11 8 6 7 6 5 5 5 5 5 4 5 6 4 6 7 6 5 6 5 5 6 7 7 8 9 10 10 8 2 3 6 11 12 7 4 8 9 7 10 10 10 10 10 10 16 23 26 26 27 27 27 28 28 29 28 28 28 28 28 28 28 28
6 5 6 5 7 9 9 10 14 14 14 13 14 13 12 10 9 8 8 6 5 5 6 5 5 7 8 8 6 6 5 5 6 7 7 8 8 9 10 12 7 1 8 10 11 11 3 6 9 8 8 9 10 10 10 19 23 24 25 26 26 27 28 29 29 28 28 28 28 29 29 29 29 28
5 6 6 6 4 6 7 7 8 11 13 14 14 15 15 15 17 14 12 7 5 6 5 6 8 7 9 7 6 7 6 6 7 9 9 8 8 9 9 9 12 8 10 11 12 15 3 6 8 8 7 9 9 11 17 22 23 24 25 24 25 27 29 29 29 28 28 28 28 28 29 28 28 28
7 6 5 5 5 5 10 8 7 7 8 11 15 16 16 17 18 18 18 16 11 6 8 9 9 9 7 9 9 8 6 7 10 9 8 8 8 8 9 10 11 11 10 11 11 14 8 6 8 9 7 8 9 12 15 21 23 25 23 24 25 28 29 29 29 28 28 28 29 28 28 27 26 26
8 7 7 6 7 6 7 7 8 8 8 8 7 8 11 11 13 17 20 20 21 16 11 11 12 10 9 10 9 7 6 8 9 8 7 5 6 7 9 11 11 11 8 8 10 13 6 4 9 10 9 7 9 9 17 23 23 23 22 23 25 27 28 28 28 28 28 28 28 28 27 26 26 25
9 8 7 8 7 6 7 7 9 8 8 6 7 9 9 7 7 7 7 9 10 12 13 14 13 11 11 12 11 8 8 9 9 6 4 4 5 8 9 9 8 8 5 7 6 8 9 8 10 9 9 10 9 8 14 21 21 21 20 23 26 27 27 27 27 28 27 27 27 27 26 26 26 25
7 7 8 7 7 7 7 10 16 13 8 7 9 10 10 9 7 8 9 13 14 10 9 9 10 8 9 10 8 8 8 6 5 3 2 2 3 5 9 9 2 5 4 5 7 10 11 6 10 12 10 10 10 9 9 17 19 18 20 24 25 26 26 26 27 27 27 26 26 26 26 25 25 26
7 8 8 8 6 8 9 11 15 16 14 8 10 10 11 10 6 9 7 16 20 21 22 22 21 22 22 21 20 19 21 12 6 2 4 6 1 6 11 11 3 4 2 4 7 8 10 7 8 13 10 10 11 11 8 9 14 18 22 22 23 24 25 25 26 27 26 26 26 26 26 25 25 27
7 8 13 10 8 8 8 12 16 17 14 11 11 11 11 11 11 12 8 7 9 18 22 23 23 23 22 22 24 17 9 6 3 0 6 3 1 8 6 10 8 7 4 7 5 4 6 7 7 12 11 12 6 6 7 7 11 19 17 19 21 22 23 25 25 25 25 25 25 25 26 25 24 16
6 6 10 16 13 11 11 15 16 18 16 11 11 11 10 13 14 13 7 8 7 8 8 10 12 14 18 15 5 5 7 4 2 1 3 1 3 9 9 7 7 9 1 3 1 5 7 8 8 7 11 9 7 5 4 7 10 12 12 13 13 18 22 24 23 23 25 25 25 24 24 24 22 12
5 7 8 11 18 20 18 18 19 19 20 14 11 10 10 10 15 8 6 9 9 8 9 9 9 10 9 3 2 2 2 1 3 3 3 4 4 5 6 6 6 7 4 2 1 7 10 6 7 5 6 7 10 6 9 11 8 12 11 13 12 15 18 19 17 21 23 24 25 23 23 23 22 12
6 5 6 6 14 20 21 20 20 20 20 20 13 13 12 13 11 4 7 7 12 8 8 8 8 8 7 5 4 3 3 2 2 2 4 5 6 6 6 6 7 9 7 7 9 8 7 6 10 8 7 7 9 13 10 10 11 9 12 11 13 12 10 11 11 13 17 22 23 23 22 23 24 17
6 7 6 6 9 17 20 21 22 22 21 22 15 15 20 21 20 15 10 9 6 8 8 8 9 8 7 7 5 4 3 2 2 3 4 5 6 6 6 6 7 8 7 4 8 8 8 9 8 9 9 8 12 10 15 12 8 9 10 12 11 11 9 10 12 13 13 13 13 15 19 24 22 22
8 4 7 7 11 17 19 20 21 22 23 20 18 23 22 22 22 19 13 9 8 8 8 9 9 9 7 8 7 5 4 2 3 3 4 5 5 5 6 7 8 11 11 9 9 9 8 9 7 8 10 9 11 13 11 12 11 9 12 11 12 11 9 9 12 13 12 12 13 21 20 20 21 22
6 6 9 7 13 16 18 19 20 22 22 18 22 22 23 23 20 12 10 10 9 7 8 9 10 10 7 6 5 4 4 3 3 4 4 5 5 5 5 6 9 10 11 11 10 9 9 9 9 9 9 8 10 11 14 11 11 11 12 12 11 12 8 9 11 12 12 12 12 12 12 13 13 14
9 10 13 13 15 16 18 20 21 21 23 25 23 23 22 19 12 11 8 6 4 7 9 9 8 7 7 6 3 3 3 3 3 3 3 3 3 3 4 6 7 8 8 7 9 10 9 8 9 8 8 8 9 11 11 13 12 13 12 14 12 10 11 9 10 12 12 12 11 11 12 12 13 13
16 16 16 19 19 18 16 14 12 11 9 16 21 22 20 10 9 7 7 7 8 10 9 8 9 8 5 3 3 4 4 4 4 3 3 3 3 1 3 4 5 6 8 7 8 8 8 8 8 8 8 9 9 11 11 11 12 12 13 12 12 13 8 8 11 11 11 12 12 12 11 11 12 12
12 12 12 10 12 11 17 18 17 16 13 12 12 9 9 9 9 7 7 8 9 8 8 7 7 4 4 3 4 3 4 4 3 3 3 2 2 1 2 4 7 6 5 3 5 6 6 7 7 8 9 9 10 10 10 10 12 13 12 10 9 10 11 12 11 11 11 12 12 11 11 11 11 12
7 7 7 9 5 5 7 8 6 6 6 7 7 7 7 7 7 9 10 6 5 6 4 2 2 3 3 3 3 2 2 2 2 3 3 2 2 1 2 3 5 4 6 5 3 4 5 6 6 7 8 9 11 11 9 9 11 12 11 10 9 9 9 10 11 11 12 12 11 10 10 10 11 11
6 4 4 3 4 4 6 6 7 7 5 5 6 6 7 7 7 6 4 7 8 5 4 5 5 4 3 2 2 2 2 3 2 2 2 2 2 3 3 5 5 5 6 6 6 4 2 5 6 7 8 10 11 12 11 9 9 7 8 9 9 11 9 9 10 11 12 11 11 11 11 10 10 11
4 3 3 3 3 4 4 5 6 6 7 7 5 4 5 4 4 4 5 6 5 3 4 4 3 3 2 2 3 3 3 2 2 3 4 3 3 3 4 5 5 5 5 7 6 5 4 4 4 5 7 9 8 9 10 10 12 8 7 8 10 11 10 10 10 12 11 10 12 12 11 10 9 9
6 6 6 6 3 4 4 6 5 6 7 7 6 6 5 5 5 5 5 6 3 3 3 3 3 3 3 4 3 3 3 2 2 1 2 2 3 4 4 5 6 5 5 6 6 4 3 6 6 8 6 4 3 3 11 11 8 9 10 9 8 10 11 10 11 11 11 11 9 10 11 10 9 9
7 8 8 8 6 4 6 7 5 6 7 7 6 6 5 6 5 6 6 5 4 4 3 3 3 3 3 3 3 2 2 2 2 2 2 2 3 4 4 5 6 7 6 6 6 4 4 6 5 7 9 10 8 6 1 1 6 8 10 11 9 10 11 11 11 10 10 10 9 9 10 11 11 11
6 6 6 7 7 6 7 7 6 6 6 6 6 6 6 6 5 4 2 4 4 3 4 3 3 3 3 2 2 2 3 3 3 2 2 1 2 4 4 6 5 6 6 6 4 5 5 5 4 5 6 8 8 8 7 5 8 8 8 10 11 10 11 12 11 11 9 9 9 8 9 10 12 12
7 6 6 6 6 7 6 6 6 7 6 6 6 5 5 2 2 3 3 3 3 2 3 4 3 3 3 2 3 2 2 2 2 2 2 2 3 3 4 4 4 4 5 6 5 5 5 5 4 5 4 6 8 8 9 9 10 5 4 9 11 11 11 11 11 11 11 9 9 9 9 10 11 11
4 2 3 2 3 3 5 5 5 6 6 5 5 5 3 2 2 3 2 2 3 3 3 3 3 3 4 3 3 2 2 2 2 2 2 2 3 3 3 3 4 4 4 6 4 5 4 4 3 3 5 7 7 8 7 9 11 12 13 16 11 10 9 10 11 11 10 10 9 9 9 9 11 16
2 2 1 1 1 1 2 2 1 1 1 1 1 0 2 2 2 2 2 2 3 3 3 3 3 3 2 3 2 1 2 3 3 2 2 2 3 4 5 5 6 6 6 6 7 5 4 4 4 4 6 7 9 8 8 9 11 11 10 10 10 9 9 9 10 11 10 9 10 10 10 9 9 9
2 2 2 2 2 2 2 2 2 1 1 1 1 1 1 2 3 3 3 3 3 3 3 2 3 3 3 3 3 3 3 2 2 3 3 4 4 5 6 6 5 5 5 7 6 6 5 4 5 13 12 9 8 7 5 4 6 7 7 8 10 14 14 12 9 9 9 10 9 9 10 10 10 10
2 2 2 2 2 1 1 1 0 0 1 1 1 2 2 2 3 3 3 2 3 2 2 2 3 3 3 3 3 3 3 3 2 3 4 4 4 5 6 5 6 4 4 7 6 6 5 5 6 6 6 6 5 4 5 6 7 9 9 8 8 12 15 15 15 13 9 8 8 8 9 9 8 9
1 1 1 0 0 1 1 1 1 1 1 1 2 1 1 1 1 2 1 2 2 2 2 2 2 2 2 1 2 3 3 4 3 4 4 4 5 5 5 4 4 4 6 7 7 8 7 6 5 6 6 4 3 2 5 7 7 8 9 8 8 9 10 14 13 14 13 13 11 9 8 9 8 9
1 1 2 2 2 2 1 1 1 1 1 1 1 1 2 2 3 3 2 2 2 3 3 2 2 3 3 2 2 2 3 3 3 3 4 3 4 5 5 5 4 4 4 5 7 8 6 5 4 5 5 4 3 4 5 6 7 9 9 9 8 8 9 10 10 10 8 9 13 15 17 16 13 13
1 1 2 2 2 1 1 1 1 1 1 1 2 2 2 2 2 1 2 2 3 3 3 3 3 3 2 2 3 4 4 4 4 4 4 4 5 5 3 3 3 3 4 5 4 7 7 7 6 3 3 3 2 3 6 5 7 8 8 7 8 7 6 7 10 10 10 8 11 18 19 18 18 18
Wind_Direction
126 115 114 111 115 107 102 95 83 89 88 75 73 42 124 143 173 244 265 245 204 115 150 266 150 117 7 357 348 350 352 346 344 338 339 339 334 329 329 328 330 332 336 339 338 335 333 334 334 333 334 332 329 328 327 327 325 324 325 324 324 325 325 323 323 320 323 324 322 319 315 314 314 313
116 110 106 112 112 111 110 104 102 109 118 126 122 110 110 226 199 191 254 296 198 227 164 203 240 198 356 347 345 350 335 336 337 332 332 330 324 320 322 320 322 326 332 336 335 333 331 334 335 334 334 330 328 328 327 326 326 326 327 328 327 327 328 326 328 325 323 321 318 317 317 315 315 313
116 117 115 117 118 125 121 127 132 132 143 141 135 129 130 147 168 154 145 212 291 144 237 143 123 313 327 342 332 332 325 328 330 325 320 315 310 311 308 308 315 322 329 332 332 330 330 334 335 335 332 328 329 327 327 326 326 327 326 326 326 328 328 328 328 326 323 320 319 318 313 312 312 310
123 125 127 138 141 147 142 147 149 152 147 144 145 147 146 145 153 141 181 224 240 140 216 283 265 356 330 332 329 321 313 309 314 312 305 301 301 300 296 296 308 318 324 329 329 327 329 333 335 334 328 326 327 327 327 327 328 328 327 326 327 327 327 326 324 322 320 319 317 314 313 312 312 310
130 133 134 143 150 158 160 157 159 160 154 146 144 151 158 152 155 163 180 223 265 267 251 276 278 330 343 327 332 314 311 314 312 302 293 293 292 292 292 297 301 314 322 326 327 325 329 333 336 332 325 325 327 328 328 329 329 328 328 327 327 327 326 324 321 321 321 320 318 314 311 312 311 311
139 139 140 150 158 176 166 163 172 166 161 165 159 173 172 167 164 182 179 233 248 273 169 256 265 274 340 295 305 313 313 311 309 303 297 290 288 289 296 301 303 313 320 326 327 325 328 333 335 328 323 324 327 328 329 330 329 329 329 328 327 325 324 321 320 321 320 317 316 313 313 314 313 311
146 148 154 158 162 167 170 180 177 166 173 173 182 172 174 173 176 179 200 186 246 272 285 243 255 267 292 293 304 305 295 293 293 295 297 301 294 286 295 298 299 310 320 328 326 321 324 330 331 324 319 322 326 327 330 330 330 330 329 329 327 325 323 321 320 320 319 317 315 314 315 313 314 317
161 162 156 171 171 176 180 181 181 183 181 185 186 177 178 182 182 179 185 215 232 266 274 256 213 282 303 288 292 292 284 282 282 287 293 287 287 295 293 296 300 307 320 324 320 316 319 326 328 320 316 320 324 328 330 331 331 331 331 330 327 324 323 321 320 318 317 316 316 316 315 317 317 315
167 173 178 167 172 179 184 186 193 187 189 191 186 188 182 188 185 175 195 208 225 241 256 275 267 270 275 282 285 284 294 297 293 287 279 287 294 297 293 290 293 309 317 318 313 309 315 322 324 318 315 318 323 327 328 330 331 331 331 330 327 325 323 322 321 320 320 320 319 316 318 318 316 318
182 177 181 177 180 186 191 194 188 188 194 185 194 189 192 188 186 195 201 208 223 241 256 264 283 263 276 292 278 272 279 307 312 308 291 281 278 301 306 303 314 311 309 315 313 310 312 316 316 311 310 315 322 325 329 330 330 330 330 329 326 325 323 323 323 321 321 321 320 321 320 317 317 317
186 189 189 187 193 197 200 191 191 187 190 193 198 195 189 189 186 202 203 207 225 235 251 261 258 276 266 265 285 287 286 292 293 307 322 316 282 309 315 316 318 311 305 295 288 301 309 312 310 304 306 313 319 325 326 327 328 328 328 327 327 326 325 324 323 322 321 321 321 320 319 320 318 316
194 198 201 201 204 206 204 199 195 187 193 190 198 197 187 191 193 201 203 208 220 230 242 252 264 264 276 276 265 274 276 292 290 302 321 309 316 319 319 317 319 315 306 305 299 291 300 310 305 301 303 306 315 321 323 323 325 325 329 328 327 327 326 324 323 323 322 321 320 320 321 319 318 318
201 208 209 211 212 214 214 214 209 206 196 180 193 195 189 193 196 199 202 212 214 231 238 252 253 265 266 263 279 281 279 298 301 310 310 297 299 307 311 310 305 297 309 307 297 296 315 313 313 315 309 310 317 316 321 321 322 326 329 327 328 328 327 325 324 324 323 322 321 319 318 318 318 319
206 210 210 217 218 215 215 217 217 213 210 208 203 186 188 190 192 195 195 209 215 218 231 239 243 259 261 260 262 275 279 291 295 300 304 301 306 313 305 302 258 309 315 316 309 302 303 309 309 313 310 312 317 315 320 319 322 325 325 326 328 327 326 325 325 324 323 322 320 318 317 316 315 315
202 206 211 216 219 219 219 221 224 223 218 218 217 211 204 198 187 179 201 215 204 211 231 237 232 244 262 262 261 264 284 285 291 296 296 296 304 310 320 315 317 55 346 318 308 304 331 317 309 306 301 309 317 314 310 316 321 324 325 326 326 327 327 326 325 324 322 321 319 318 318 317 316 314
193 203 206 214 206 219 216 215 225 229 227 227 226 224 220 217 214 205 190 194 204 216 220 234 235 237 249 265 260 268 279 281 287 290 289 283 287 295 297 293 296 312 338 320 310 298 335 319 300 296 302 312 314 308 310 315 319 323 324 325 326 326 327 326 325 324 322 320 319 318 318 317 317 317
200 191 200 211 214 213 217 222 221 222 232 237 237 234 234 232 228 226 224 220 220 211 225 242 249 234 249 262 261 261 261 275 284 284 276 271 269 274 280 285 294 305 323 311 300 294 311 318 307 303 304 310 315 311 311 313 317 321 321 324 326 327 327 326 325 324 322 320 319 320 320 319 318 317
205 194 189 204 220 204 202 214 215 217 219 224 238 244 241 240 239 239 238 239 236 230 227 235 239 244 242 247 254 252 237 262 275 266 255 255 269 272 274 289 289 294 306 292 302 294 300 340 314 304 307 313 310 307 305 311 313 316 319 323 326 327 326 325 326 324 323 322 323 323 322 321 319 318
201 194 197 210 222 201 201 205 208 210 212 213 225 234 242 243 239 237 240 242 241 238 238 237 238 243 242 247 253 242 242 245 259 241 224 241 271 288 294 285 274 284 270 270 282 278 305 333 309 301 310 312 305 303 307 308 309 311 317 323 326 326 325 326 326 325 325 325 325 324 323 323 321 320
202 196 203 207 213 214 218 214 215 215 202 207 221 231 241 244 243 241 236 245 245 241 244 248 252 249 244 244 237 235 233 241 231 213 237 255 295 310 302 291 271 260 253 246 263 277 290 317 302 302 310 308 304 309 305 302 307 309 316 321 321 325 326 325 326 326 326 326 326 325 325 324 323 324
196 201 203 208 202 217 225 219 217 220 209 210 216 228 238 241 245 249 239 245 247 246 246 247 247 249 250 251 254 249 242 225 209 216 282 292 30 301 302 297 283 277 230 254 256 272 286 301 311 305 307 304 301 301 298 299 303 309 315 316 318 321 326 325 326 325 325 326 326 326 326 326 326 328
209 202 206 205 203 208 222 218 222 223 218 221 216 223 234 244 249 253 238 239 236 243 246 247 247 247 248 249 252 249 230 220 267 76 285 306 308 284 274 284 296 297 274 269 257 257 263 303 315 309 304 298 261 277 292 295 310 312 312 315 315 317 323 327 326 323 323 325 326 326 326 325 327 327
205 207 209 210 210 215 224 221 223 225 221 225 221 217 230 241 245 246 223 230 229 226 231 243 244 248 249 252 217 167 196 196 132 182 251 239 246 276 279 274 298 304 262 197 184 292 295 314 310 324 324 311 290 239 292 321 315 310 314 313 314 315 322 324 325 322 322 324 325 325 325 325 327 325
219 196 204 219 222 223 222 224 228 229 226 225 230 226 223 228 242 238 234 230 226 231 227 231 232 240 239 202 176 142 154 155 138 170 206 222 223 239 258 259 248 254 273 212 289 307 298 289 296 319 299 301 308 319 319 309 318 307 308 311 307 317 323 324 323 323 320 321 323 324 324 324 326 325
232 219 211 209 220 227 230 231 231 230 229 229 230 229 231 230 246 260 241 235 228 230 230 232 231 234 233 220 208 200 176 180 187 195 238 226 220 221 230 248 248 254 252 258 284 288 283 304 302 303 291 275 275 299 301 305 306 301 303 305 308 313 322 321 320 321 321 320 321 323 324 324 325 324
236 233 225 219 214 225 234 238 237 237 236 233 234 235 237 246 248 248 248 245 235 235 239 236 233 229 221 214 212 210 204 184 197 209 225 234 230 229 228 229 250 263 267 264 280 278 285 287 285 296 294 295 289 287 300 302 296 302 306 303 301 308 320 318 320 321 321 320 320 322 322 324 322 323
247 246 229 215 215 223 230 236 241 243 242 242 241 243 247 249 251 251 248 236 234 234 234 235 232 229 215 219 223 211 215 201 175 218 226 225 230 236 238 250 253 262 274 281 276 274 268 272 279 278 287 291 292 299 288 299 307 319 305 306 310 309 314 318 322 319 318 318 317 320 323 322 323 321
248 246 232 219 221 227 230 234 240 244 242 239 244 249 253 257 258 255 250 244 245 234 231 230 235 234 219 215 213 201 194 185 188 209 221 229 234 240 254 259 263 266 273 275 276 272 265 268 274 267 272 282 287 291 297 294 295 306 302 304 303 301 313 325 318 317 318 317 318 323 322 324 323 323
245 247 246 237 232 229 232 237 243 248 247 248 251 254 256 259 259 258 258 250 213 230 233 235 234 230 211 208 188 147 148 159 192 205 218 229 239 265 278 272 269 270 268 267 268 266 264 261 266 272 269 265 271 278 282 288 301 302 299 307 307 309 317 315 320 318 317 317 319 322 320 319 317 318
260 254 249 255 254 247 243 246 245 247 246 248 252 254 256 255 255 255 251 238 236 242 240 228 229 228 196 180 168 138 148 172 211 200 216 219 244 223 277 291 269 248 247 251 253 257 259 264 267 272 272 268 265 276 281 292 296 293 293 290 291 299 287 314 321 316 316 318 318 319 316 313 312 312
266 273 274 275 273 267 256 248 244 242 239 242 245 239 239 238 240 242 244 245 241 240 236 234 230 188 160 115 128 182 177 204 208 207 219 228 258 264 271 281 286 283 261 216 239 253 260 269 274 275 274 278 277 267 278 284 287 287 288 288 294 294 307 315 315 316 317 316 315 316 316 316 312 312
271 282 291 288 297 300 294 281 278 259 249 244 240 236 227 224 226 231 237 237 242 244 239 225 119 92 123 170 185 159 180 208 212 207 218 201 248 226 268 277 269 277 294 289 258 229 252 261 274 277 272 276 281 287 287 279 274 275 282 285 285 286 297 306 313 315 317 315 313 316 316 313 313 313
278 284 279 277 276 269 270 272 263 259 249 243 238 227 229 224 220 219 198 221 230 217 180 204 197 193 160 189 150 182 198 213 196 202 215 235 232 263 230 248 271 286 291 294 297 289 246 258 255 263 275 278 275 279 286 292 277 267 277 288 299 299 304 312 314 314 318 317 314 315 313 313 310 311
261 255 258 257 260 263 260 264 265 261 263 261 238 225 219 215 204 211 221 226 223 187 191 191 178 195 159 182 191 197 211 222 191 210 215 236 218 232 250 257 267 269 271 275 282 288 301 283 277 260 248 250 248 252 253 255 269 281 281 287 295 299 308 316 315 314 317 316 314 312 313 313 310 308
248 253 258 265 252 259 260 261 265 270 268 264 258 243 228 221 218 220 224 223 202 186 171 181 179 183 186 218 204 206 207 210 209 196 236 241 244 242 247 259 271 266 271 281 282 296 304 308 316 317 301 284 280 215 239 237 247 276 293 294 296 304 310 316 316 316 317 315 314 311 309 310 311 313
233 239 250 259 256 248 263 269 268 269 268 268 260 250 239 234 217 211 225 208 185 183 170 189 200 191 204 209 204 196 202 194 214 217 239 225 244 252 248 248 259 269 273 276 287 301 307 306 323 325 321 321 325 325 3 318 299 293 301 304 309 309 309 312 314 312 313 314 318 315 311 313 313 314
256 246 234 249 256 244 257 264 265 261 257 254 253 253 247 247 237 211 181 139 168 180 195 190 200 193 203 193 180 192 191 193 219 213 226 220 225 248 256 260 253 265 275 278 289 297 300 297 308 314 308 309 315 314 302 298 295 291 294 301 305 309 310 313 314 312 314 315 313 313 307 306 305 309
259 266 259 253 248 248 249 256 258 259 256 252 254 254 255 257 88 107 118 139 167 168 197 202 201 189 184 182 186 204 191 211 224 235 240 229 243 243 240 256 268 270 277 285 289 286 290 288 294 301 292 298 308 313 318 322 318 296 263 301 298 303 308 311 313 314 315 316 309 306 307 297 299 305
248 255 294 318 306 281 264 259 253 256 255 250 247 246 231 122 126 122 152 171 174 181 185 197 193 187 191 199 204 199 188 191 219 221 220 227 229 240 252 259 275 275 278 285 286 285 288 284 283 278 282 291 292 301 307 308 297 297 301 301 299 302 310 314 310 312 311 312 309 299 283 288 297 303
259 92 100 104 73 40 37 9 359 321 259 247 223 157 147 166 154 161 170 185 189 194 184 195 185 179 205 198 181 167 198 214 219 220 219 234 244 246 256 267 268 276 280 283 294 292 289 282 286 290 295 288 288 293 295 278 272 274 274 291 304 308 311 312 310 310 309 310 311 310 320 325 320 322
41 65 62 59 60 43 52 38 42 27 45 59 92 136 131 153 174 193 192 199 184 174 185 188 182 192 205 180 185 177 206 217 210 228 231 241 245 245 252 257 264 266 282 285 281 284 276 288 299 302 300 293 293 285 269 290 305 298 305 305 316 318 317 319 310 307 306 311 314 320 326 330 327 326
63 73 62 56 60 45 51 66 50 92 174 176 172 176 180 196 212 203 196 180 139 164 166 187 191 189 210 191 174 191 200 220 212 222 232 234 244 255 258 258 267 273 269 273 276 276 290 311 303 299 291 296 301 321 319 310 304 306 303 307 303 315 322 324 327 323 321 316 323 329 332 326 330 324
84 111 162 194 122 212 224 223 225 206 205 194 185 178 164 189 216 207 149 160 149 168 197 209 202 207 221 188 189 188 195 216 219 229 230 234 238 248 254 252 249 261 264 269 281 288 295 300 302 304 303 300 288 297 300 304 297 296 305 311 318 320 313 322 332 335 336 332 332 336 334 330 328 325
162 176 176 187 207 206 219 217 225 218 190 197 164 156 178 178 214 215 191 156 174 207 187 184 187 199 206 197 178 195 210 224 215 215 225 229 234 240 251 259 259 260 266 279 290 295 298 299 298 301 302 301 305 304 301 305 304 308 308 308 307 317 320 322 324 333 340 341 340 342 342 339 330 322
172 184 181 185 202 201 185 197 202 195 177 165 164 178 180 176 212 193 193 188 207 210 198 205 198 207 205 197 179 212 225 222 223 226 233 241 242 244 246 251 260 266 271 278 288 295 305 311 304 294 261 266 270 284 292 291 293 302 302 310 310 314 315 330 336 334 333 323 329 342 344 341 339 338